Flag for Germany Weather past 2 weeks in Leverkusen, North Rhine-Westphalia, Germany

Now
54 °F

Light rain. Broken clouds.


Feels Like: 47 °F
Forecast: 42 / 47 °F
Wind: 30 mph from West

Location: Koeln / Bonn

Current Time: Mar 29, 2015 at 8:12:44 PM

Latest Report: Mar 29, 2015 at 7:20 PM


Visibility: N/A

Pressure: 29.36 "Hg

Humidity: 77%

Dew point: 46 °F

Location of LeverkusenLocation

Historic Weather in Leverkusen — Graph

°F

Leverkusen temperature yesterday

Maximum temperature yesterday: 54 °F (at 10:50 AM)
Minimum temperature yesterday: 36 °F (at 5:50 AM)
Average temperature yesterday: 46 °F

Past Weeks' High & Low Weather Summary

 TemperatureHumidityPressure
High66 °F (Mar 17, 3:50 PM)100% (Mar 16, 4:50 AM)30.36 "Hg (Mar 16, 4:50 AM)
Low28 °F (Mar 16, 7:20 AM)28% (Mar 17, 3:50 PM)29.36 "Hg (Mar 29, 6:20 PM)
Average44 °F76%30.06 "Hg
* Reported Mar 14 5:20 PM — Mar 29 6:50 PM, Leverkusen, Weather by CustomWeather, © 2015

Note: Actual official high and low records may vary slightly from our data, if they occured in-between our weather recording intervals... More about our weather records

Advertising

Leverkusen weather history for previous 24 hours

 ConditionsComfort  
Time TempWeatherWind HumidityBarometerVisibility
6:50 PM
Sun, Mar 29
54 °FPartly sunny.15 mph77%29.36 "HgN/A
6:20 PM54 °FPartly sunny.22 mph82%29.36 "HgN/A
5:50 PM52 °FLight rain. Mostly cloudy.14 mph88%29.39 "HgN/A
5:20 PM52 °FLight rain. Mostly cloudy.12 mph88%29.39 "HgN/A
4:50 PM52 °FRain. More clouds than sun.13 mph88%29.42 "HgN/A
4:20 PM52 °FRain. Mostly cloudy.17 mph88%29.45 "HgN/A
3:50 PM52 °FLight rain. Partly sunny.13 mph82%29.45 "HgN/A
3:20 PM52 °FRain. Mostly cloudy.13 mph82%29.47 "HgN/A
2:50 PM50 °FRain. Mostly cloudy.14 mph88%29.50 "HgN/A
2:20 PM50 °FRain. More clouds than sun.14 mph88%29.53 "HgN/A
1:50 PM50 °FRain. More clouds than sun.13 mph88%29.56 "HgN/A
1:20 PM50 °FLight rain. More clouds than sun.10 mph88%29.59 "HgN/A
12:50 PM50 °FLight rain. Partly sunny.9 mph88%29.62 "HgN/A
12:20 PM50 °FLight rain. Partly sunny.8 mph88%29.62 "HgN/A
11:50 AM50 °FLight rain. Partly sunny.13 mph82%29.65 "HgN/A
11:20 AM48 °FLight rain. Partly sunny.12 mph87%29.65 "HgN/A
10:50 AM48 °FLight rain. Partly sunny.10 mph87%29.65 "HgN/A
10:20 AM48 °FLight rain. Partly sunny.12 mph82%29.68 "HgN/A
9:50 AM50 °FLight rain. Partly sunny.14 mph76%29.68 "HgN/A
9:20 AM50 °FLight rain. Partly sunny.16 mph76%29.71 "HgN/A
8:50 AM52 °FLight rain. Broken clouds.16 mph67%29.71 "HgN/A
8:20 AM52 °FBroken clouds.17 mph67%29.71 "HgN/A
7:50 AM52 °FPartly cloudy.10 mph67%29.71 "HgN/A
7:20 AM52 °FPartly cloudy.20 mph72%29.71 "HgN/A
6:50 AM52 °FPartly cloudy.17 mph72%29.74 "HgN/A
6:20 AM52 °FPartly cloudy.14 mph72%29.74 "HgN/A
5:50 AM52 °FPartly cloudy.16 mph72%29.74 "HgN/A
5:20 AM52 °FPartly cloudy.17 mph72%29.74 "HgN/A
4:50 AM52 °FPartly cloudy.14 mph77%29.74 "HgN/A
4:20 AM52 °FPartly cloudy.15 mph82%29.77 "HgN/A
3:50 AM52 °FPartly cloudy.6 mph82%29.77 "HgN/A
3:20 AM54 °FPassing clouds.14 mph77%29.77 "HgN/A
1:50 AM54 °FLight rain. Passing clouds.10 mph82%29.77 "HgN/A
1:20 AM52 °FLight rain. Passing clouds.9 mph88%29.77 "HgN/A
12:50 AM52 °FPassing clouds.9 mph88%29.80 "HgN/A
12:20 AM52 °FPassing clouds.10 mph88%29.80 "HgN/A
11:50 PM
Sat, Mar 28
50 °FPassing clouds.7 mph88%29.83 "HgN/A
11:20 PM50 °FDrizzle. Overcast.8 mph88%29.83 "HgN/A
10:50 PM50 °FLight rain. Passing clouds.9 mph88%29.83 "HgN/A
10:20 PM50 °FPartly cloudy.12 mph88%29.83 "HgN/A
9:50 PM48 °FPartly cloudy.12 mph94%29.86 "HgN/A
9:20 PM48 °FPassing clouds.12 mph94%29.86 "HgN/A
8:50 PM48 °FPassing clouds.12 mph87%29.89 "HgN/A
8:20 PM50 °FPassing clouds.12 mph82%29.92 "HgN/A
Weather by CustomWeather, © 2015

See weather overviewHow to use our weather pages